User: anonymous   Login
Location: Mentone
(34.5413°N, 85.5351°W)
Time: 15:01:35
(UTC-06:00)
Language:

SL-8 R/B - Orbit

View from above orbital plane
View from above orbital plane
View from above satellite
View from above satellite

Ground track
Ground track

The orbit data is extracted from the following two-line orbital elements,

1 33066U 08031G   16044.92830829 +.00000166 +00000-0 +60595-4 0  9998
2 33066 048.4425 238.6491 0007939 210.8675 297.7537 14.69374562410751
Epoch (UTC): 13 February 2016 22:16:45
Eccentricity: 0.0007939
inclination: 48.4425°
perigee height: 657 km
apogee height: 668 km
right ascension of ascending node: 238.6491°
argument of perigee: 210.8675°
revolutions per day: 14.69374562
mean anomaly at epoch: 297.7537°
orbit number at epoch: 41075

The dashed part of the orbit path shows where the satellite is in the earth's shadow,  

DLR